Regional Weather Roundup
Issued by NWS Portland, ME

Current Version | Previous Version | Text Only | Print | Product List | Glossary Off
Versions: 1 2 3 4 5 6 7 8 9 10 11 12 13 14 15 16 17 18 19 20 21 22 23 24 25 26 27 28 29 30 31 32 33 34 35 36 37 38 39 40 41 42 43 44 45 46 47 48 49 50
000 ASUS41 KGYX 270205 RWRGYX WEATHER ROUNDUP FOR MAINE AND NEW HAMPSHIRE NATIONAL WEATHER SERVICE GRAY ME 1000 PM EDT SUN MAR 26 2017 MEZ002-005-006-010-012-015-018-020-021-024-026-027-029-270300- MAINE CITY SKY/WX TMP DP RH WIND PRES REMARKS PORTLAND CLOUDY 34 24 67 S3 30.45F SANFORD CLOUDY 33 24 69 CALM 30.45F BAR HARBOR MOCLDY 30 20 66 SW7 30.48F WISCASSET CLOUDY 34 24 67 S5 30.48F ROCKLAND CLOUDY 33 21 61 S3 30.47F FRYEBURG CLOUDY 33 21 61 VRB5 30.41F LEWISTONAUBURN CLOUDY 32 22 66 SE5 30.44F AUGUSTA CLOUDY 31 19 61 S5 30.44F WATERVILLE CLOUDY 32 20 61 S5 30.41F BANGOR CLOUDY 30 19 63 S6 30.46F GREENVILLE N/A 29 8 41 SE3 30.33F MILLINOCKET CLOUDY 28 9 44 CALM 30.43F HOULTON PTCLDY 25 5 42 CALM 30.43S PRESQUE ISLE CLOUDY 19 8 62 CALM 30.44S FRENCHVILLE PTCLDY 26 -13 17 CALM 30.40S CARIBOU PTCLDY 25 -1 32 CALM 30.42F $$ NHZ002-005-008-009-011-012-014-270300- NEW HAMPSHIRE CITY SKY/WX TMP DP RH WIND PRES REMARKS PORTSMOUTH CLOUDY 35 26 69 E7 30.42F ROCHESTER CLOUDY 33 24 69 E3 30.42F NASHUA CLOUDY 34 31 88 E3 30.43F MANCHESTER LGT RAIN 35 25 66 SE5 30.41F CONCORD MIX PCPN 34 26 72 CALM 30.42F LACONIA LGT RAIN 33 24 69 CALM 30.41F PLYMOUTH MIX PCPN 32 28 83 CALM 30.40F BERLIN CLOUDY 35 16 45 S8 30.31F WHITEFIELD CLOUDY 37 16 42 N6 30.30F JAFFREY CLOUDY 32 26 78 VRB3 30.38S KEENE CLOUDY 35 26 69 VRB3 30.40S LEBANON CLOUDY 34 28 79 SE5 30.36F MT WASHINGTON FOG 34 34 100 SW32 N/A VSB 0 WCI 20 $$ VTZ005-007-008-270300- VERMONT CITY SKY/WX TMP DP RH WIND PRES REMARKS ST JOHNSBURY N/A 35 26 69 MISG 30.31F MONTPELIER CLOUDY 33 26 75 S10G20 30.34F BURLINGTON CLOUDY 36 29 75 S13 30.27F $$ MAZ007-012-024-CTZ003-RIZ002-NYZ038-NYZ072-270300- SOUTHERN NEW ENGLAND AND NY CITY SKY/WX TMP DP RH WIND PRES REMARKS BOSTON LGT RAIN 37 31 78 SE13 30.44F WORCESTER CLOUDY 33 26 75 E7 30.37F NANTUCKET LGT RAIN 37 31 78 E9 30.42F PROVIDENCE CLOUDY 38 28 67 E7 30.41F HARTFORD CLOUDY 38 30 73 SE5 30.40S ALBANY CLOUDY 37 30 75 S10 30.35S NEW YORK CITY DRIZZLE 41 37 86 NE14 30.35F FOG $$ ANZ081-ANZ082-ANZ150-NHZ014-MEZ023>029-270300- COASTAL MARINE OBSERVATIONS STATION/POSITION TIME TEMP WIND PRES WAVE AIR SEA DIR/SP/G HT/PER (UTC) (F) (DEG/KT/KT) (MB) (FT/S) MOUNT DESERT ROC 0100 32 1032.9F MATINICUS ROCK 0100 32 200/ 10/ 10 1032.3F ISLE OF SHOALS 0100 36 130/ 10/ 12 1031.2F JEFFREYS LEDGE 0106 41 N/A 3/ 6 CASHES LEDGE BUO 0050 33 40 1032.9 2/ 5 GEORGES BANK BUO 0050 37 41 1032.0 3/ 7 $$ .............KEY.............. WCI - WIND CHILL TC - TEMPERATURE IN CELSIUS VSB - VISIBILITY IN MILES HX - HEAT INDEX FAIR- INDICATES FEW OR NO CLOUDS BELOW 12,000 FT, WITH NO SIGNIFICANT WEATHER AND/OR OBSTRUCTIONS TO VISIBILITY.

USA.gov is the U.S. government's official web portal to all federal, state and local government web resources and services.